FW2691 Weather Reports


time (UTC)temp
C
wind
direction
speed
KPH
gust
KPH
rain 1hr
cm
rain 24hr
cm
rain mn
cm
humidity
%
barometer
mb
20191017123705 14 155 3.2 8.0 0.00 0.00 0.00 71 1015.2
20191017123205 14 142 3.2 9.7 0.00 0.00 0.00 70 1015.2
20191017122705 14 130 4.8 9.7 0.00 0.00 0.00 71 1015.3
20191017122205 14 160 4.8 9.7 0.00 0.00 0.00 71 1015.3
20191017121704 14 201 4.8 11.3 0.00 0.00 0.00 71 1015.3
20191017121205 14 211 3.2 11.3 0.00 0.00 0.00 71 1015.3
20191017120704 14 216 3.2 11.3 0.00 0.00 0.00 72 1015.2
20191017120205 14 216 3.2 12.9 0.00 0.00 0.00 72 1015.3
20191017115705 14 211 4.8 12.9 0.00 0.00 0.00 72 1015.3
20191017115205 14 211 4.8 12.9 0.00 0.00 0.00 72 1015.3
20191017114705 14 133 4.8 12.9 0.00 0.00 0.00 71 1015.3
20191017114208 14 222 4.8 12.9 0.00 0.00 0.00 70 1015.4
20191017113705 15 159 6.4 12.9 0.00 0.00 0.00 70 1015.3
20191017113206 15 174 4.8 9.7 0.00 0.00 0.00 70 1015.3
20191017112705 15 241 3.2 9.7 0.00 0.00 0.00 70 1015.5
20191017112205 15 184 3.2 8.0 0.00 0.00 0.00 70 1015.4
20191017111705 14 276 3.2 11.3 0.00 0.00 0.00 71 1015.5
20191017111204 14 157 3.2 11.3 0.00 0.00 0.00 71 1015.6
20191017110705 14 195 3.2 11.3 0.00 0.00 0.00 71 1015.6
20191017110205 14 166 1.6 8.0 0.00 0.00 0.00 72 1015.6
20191017105704 13 188 1.6 8.0 0.00 0.00 0.00 73 1015.6
20191017105205 13 276 1.6 11.3 0.00 0.00 0.00 72 1015.7
20191017104704 13 216 3.2 12.9 0.00 0.00 0.00 72 1015.7
20191017104205 13 216 4.8 12.9 0.00 0.00 0.00 72 1015.8
20191017103704 13 216 4.8 12.9 0.00 0.00 0.00 73 1015.9
20191017103205 13 160 4.8 12.9 0.00 0.00 0.00 73 1016.0
20191017102705 13 255 4.8 12.9 0.00 0.00 0.00 73 1016.0
20191017102204 13 206 6.4 12.9 0.00 0.00 0.00 72 1016.0
20191017101704 13 171 4.8 12.9 0.00 0.00 0.00 72 1016.0
20191017101205 13 226 4.8 12.9 0.00 0.00 0.00 72 1016.0
20191017100705 13 163 4.8 12.9 0.00 0.00 0.00 72 1016.1
20191017100206 13 176 4.8 11.3 0.00 0.00 0.00 74 1015.9
20191017095705 12 191 4.8 11.3 0.00 0.00 0.00 75 1015.9
20191017095205 12 227 4.8 11.3 0.00 0.00 0.00 75 1016.0
20191017094704 12 216 4.8 9.7 0.00 0.00 0.00 73 1016.1
20191017094205 12 168 4.8 9.7 0.00 0.00 0.00 74 1016.1
20191017093704 12 206 4.8 9.7 0.00 0.00 0.00 75 1016.0
20191017093205 12 237 4.8 12.9 0.00 0.00 0.00 74 1016.0
20191017092704 11 155 4.8 12.9 0.00 0.00 0.00 76 1016.1
20191017092205 11 237 3.2 12.9 0.00 0.00 0.00 77 1016.0
20191017091709 11 221 3.2 11.3 0.00 0.00 0.00 78 1016.1
20191017091205 11 224 4.8 14.5 0.00 0.00 0.00 78 1016.2
20191017090705 11 223 4.8 16.1 0.00 0.00 0.00 79 1016.2
20191017090205 10 239 4.8 16.1 0.00 0.00 0.00 78 1016.2
20191017085704 10 245 4.8 17.7 0.00 0.00 0.00 78 1016.3
20191017085205 10 211 6.4 17.7 0.00 0.00 0.00 79 1016.2
20191017084704 10 220 6.4 16.1 0.00 0.00 0.00 79 1016.2
20191017084204 10 235 6.4 16.1 0.00 0.00 0.00 79 1016.0
20191017083705 10 249 6.4 16.1 0.00 0.00 0.00 79 1015.8
20191017083205 10 243 6.4 16.1 0.00 0.00 0.00 79 1015.8
20191017082705 10 211 6.4 16.1 0.00 0.00 0.00 79 1015.9
20191017082204 10 206 6.4 16.1 0.00 0.00 0.00 80 1016.0
20191017081705 10 216 6.4 12.9 0.00 0.00 0.00 80 1015.8
20191017081205 10 216 4.8 12.9 0.00 0.00 0.00 82 1015.8
20191017080704 9 224 3.2 12.9 0.00 0.00 0.00 82 1015.7
20191017080205 9 216 4.8 14.5 0.00 0.00 0.00 82 1015.7
20191017075705 9 248 4.8 14.5 0.00 0.00 0.00 82 1015.7
20191017075205 9 182 4.8 14.5 0.00 0.00 0.00 82 1015.8
20191017074705 8 191 6.4 16.1 0.00 0.00 0.00 83 1015.8
20191017074205 8 220 6.4 16.1 0.00 0.00 0.00 83 1015.8
20191017073705 8 211 6.4 16.1 0.00 0.00 0.00 83 1015.9
20191017073205 8 182 6.4 16.1 0.00 0.00 0.00 84 1015.9
20191017072704 8 178 6.4 16.1 0.00 0.00 0.00 83 1015.9
20191017072205 8 216 4.8 17.7 0.00 0.00 0.00 84 1016.0
20191017071704 8 206 6.4 17.7 0.00 0.00 0.00 83 1015.8
20191017071205 8 216 8.0 17.7 0.00 0.00 0.00 84 1016.1
20191017070704 8 206 8.0 20.9 0.00 0.00 0.00 83 1016.1
20191017070205 8 234 8.0 20.9 0.00 0.00 0.00 84 1016.2
20191017065704 8 246 8.0 20.9 0.00 0.00 0.00 84 1016.0
20191017065205 8 211 6.4 16.1 0.00 0.00 0.00 84 1016.1
20191017064707 8 246 4.8 12.9 0.00 0.00 0.00 85 1015.8
20191017064206 8 262 4.8 12.9 0.00 0.00 0.00 85 1015.6
20191017063705 8 290 4.8 12.9 0.00 0.00 0.00 85 1015.5
20191017063205 8 238 4.8 17.7 0.00 0.00 0.00 85 1015.3
20191017062704 8 251 8.0 17.7 0.00 0.00 0.00 85 1015.1
20191017062205 8 220 8.0 17.7 0.00 0.00 0.00 85 1015.1
20191017061704 8 236 8.0 20.9 0.00 0.00 0.00 85 1015.2
20191017061205 8 239 9.7 20.9 0.00 0.00 0.00 85 1015.1
20191017060704 8 216 9.7 20.9 0.00 0.00 0.00 85 1015.1
20191017060205 8 230 8.0 17.7 0.00 0.00 0.00 85 1015.0
20191017055705 8 216 8.0 17.7 0.00 0.00 0.00 85 1015.0
20191017055205 8 200 8.0 17.7 0.00 0.00 0.00 85 1015.0
20191017054704 8 226 8.0 17.7 0.00 0.03 0.00 85 1014.9
20191017054205 8 228 8.0 19.3 0.00 0.05 0.00 85 1014.9
20191017053705 8 230 8.0 22.5 0.00 0.05 0.00 85 1014.8
20191017053205 8 259 9.7 22.5 0.00 0.05 0.00 85 1014.8
20191017052705 8 238 9.7 22.5 0.00 0.05 0.00 84 1014.7
20191017052205 8 228 8.0 20.9 0.00 0.05 0.00 84 1014.6
20191017051705 8 206 9.7 20.9 0.00 0.05 0.00 84 1014.6
20191017051205 8 279 11.3 20.9 0.00 0.05 0.00 84 1014.6
20191017050705 8 206 11.3 20.9 0.00 0.05 0.00 84 1014.6
20191017050208 8 233 9.7 19.3 0.00 0.05 0.00 84 1014.6
20191017045705 8 223 9.7 19.3 0.00 0.05 0.00 84 1014.6
20191017045205 8 246 9.7 19.3 0.00 0.05 0.00 84 1014.6
20191017044705 8 206 9.7 19.3 0.00 0.05 0.00 84 1014.6
20191017044205 8 247 9.7 17.7 0.00 0.05 0.00 84 1014.6
20191017043704 8 211 8.0 17.7 0.00 0.05 0.00 84 1014.6
20191017043205 8 181 9.7 17.7 0.00 0.05 0.00 84 1014.6
20191017042705 8 316 9.7 22.5 0.00 0.05 0.00 84 1014.6
20191017042205 8 275 9.7 22.5 0.00 0.05 0.00 84 1014.5
20191017041704 8 241 9.7 22.5 0.00 0.05 0.00 83 1014.6
20191017041205 8 222 11.3 22.5 0.00 0.05 0.00 83 1014.7
20191017040704 8 233 11.3 22.5 0.00 0.05 0.00 83 1014.7
20191017040205 8 258 11.3 24.1 0.00 0.05 0.00 83 1014.7
20191017035705 8 220 11.3 24.1 0.00 0.05 0.00 83 1014.7
20191017035205 8 252 11.3 24.1 0.00 0.05 0.00 83 1014.8
20191017034704 8 245 12.9 24.1 0.00 0.05 0.00 83 1014.8
20191017034205 8 251 12.9 22.5 0.00 0.05 0.00 83 1014.8
20191017033704 8 230 12.9 22.5 0.00 0.05 0.00 83 1014.8
20191017033205 8 274 11.3 25.7 0.00 0.05 0.00 83 1014.8
20191017032706 8 264 12.9 25.7 0.00 0.05 0.00 83 1014.8
20191017032205 8 220 11.3 22.5 0.00 0.05 0.00 83 1014.8
20191017031705 8 255 9.7 19.3 0.00 0.08 0.00 83 1014.7
20191017031205 8 226 9.7 19.3 0.00 0.08 0.00 82 1014.7
20191017030705 8 206 11.3 19.3 0.00 0.08 0.00 82 1014.7
20191017030205 8 245 9.7 12.9 0.00 0.08 0.00 83 1014.7
20191017025704 8 211 6.4 12.9 0.00 0.08 0.00 83 1014.8
20191017025205 8 202 4.8 16.1 0.00 0.08 0.00 83 1014.8
20191017024705 8 220 4.8 16.1 0.00 0.08 0.00 83 1014.8
20191017024205 8 216 6.4 16.1 0.00 0.08 0.00 83 1014.8
20191017023704 8 211 6.4 14.5 0.00 0.08 0.00 82 1014.8
20191017023205 8 269 8.0 16.1 0.00 0.10 0.00 82 1014.8
20191017022704 8 239 8.0 16.1 0.00 0.10 0.00 82 1014.9
20191017022205 8 201 6.4 17.7 0.00 0.10 0.00 82 1014.8
20191017021705 8 260 8.0 17.7 0.00 0.10 0.00 82 1014.9
20191017021204 8 222 6.4 16.1 0.00 0.10 0.00 82 1014.9
20191017020705 8 239 4.8 16.1 0.00 0.13 0.00 83 1014.9
20191017020205 8 235 6.4 16.1 0.00 0.13 0.00 83 1014.8
20191017015705 8 225 8.0 16.1 0.00 0.13 0.00 83 1014.8
20191017015205 8 265 6.4 16.1 0.00 0.13 0.00 84 1015.0
20191017014705 8 236 6.4 14.5 0.00 0.13 0.00 84 1015.0
20191017014204 8 232 6.4 14.5 0.00 0.13 0.00 84 1015.1
20191017013704 8 206 6.4 14.5 0.00 0.13 0.00 84 1015.1
20191017013208 8 257 6.4 16.1 0.00 0.13 0.00 84 1015.1
20191017012704 7 206 6.4 16.1 0.00 0.13 0.00 85 1015.0
20191017012205 7 216 4.8 14.5 0.00 0.13 0.00 86 1015.0
20191017011705 7 255 4.8 14.5 0.00 0.13 0.00 87 1015.1
20191017011205 7 220 6.4 14.5 0.00 0.13 0.00 88 1015.1
20191017010704 7 195 6.4 12.9 0.00 0.13 0.00 90 1015.1
20191017010205 6 253 4.8 9.7 0.00 0.13 0.00 91 1015.1
20191017005705 6 230 3.2 8.0 0.00 0.13 0.00 91 1015.2
20191017005205 6 197 1.6 4.8 0.00 0.13 0.00 90 1015.2
20191017004704 6 137 0.0 4.8 0.00 0.13 0.00 90 1015.2
20191017004205 6 201 0.0 1.6 0.00 0.13 0.00 90 1015.1
20191017003705 6 206 0.0 1.6 0.00 0.13 0.00 90 1015.2
20191017003205 6 206 0.0 3.2 0.00 0.13 0.00 89 1015.2
20191017002704 6 206 0.0 3.2 0.00 0.13 0.00 89 1015.1
20191017002205 6 206 0.0 3.2 0.00 0.13 0.00 90 1015.2
20191017001704 6 206 0.0 3.2 0.00 0.13 0.00 90 1015.1
20191017001205 6 206 0.0 3.2 0.00 0.13 0.00 89 1015.1
20191017000704 6 206 0.0 3.2 0.00 0.13 0.00 89 1015.0
20191017000206 7 206 0.0 3.2 0.00 0.13 0.00 89 1015.1
20191016235704 7 206 0.0 3.2 0.00 0.13 0.00 89 1015.0
20191016235205 7 206 0.0 4.8 0.00 0.13 0.00 89 1015.1
20191016234704 7 206 0.0 6.4 0.00 0.13 0.00 89 1015.1
20191016234205 7 206 1.6 11.3 0.00 0.13 0.00 88 1015.1
20191016233704 7 206 3.2 12.9 0.00 0.13 0.00 89 1015.1
20191016233205 7 216 4.8 12.9 0.00 0.13 0.00 90 1015.1
20191016232704 7 239 3.2 12.9 0.00 0.13 0.00 90 1015.1
20191016232204 6 233 1.6 6.4 0.00 0.13 0.00 90 1015.0
20191016231705 6 178 1.6 8.0 0.00 0.13 0.00 90 1015.0
20191016231205 7 201 1.6 8.0 0.00 0.13 0.00 90 1015.0
20191016230705 6 211 3.2 8.0 0.00 0.13 0.00 92 1015.0
20191016230205 6 216 1.6 6.4 0.00 0.13 0.00 92 1015.0
20191016225704 6 202 1.6 8.0 0.00 0.13 0.00 93 1014.9
20191016225205 6 230 1.6 8.0 0.00 0.13 0.00 93 1014.9
20191016224704 6 241 1.6 8.0 0.00 0.13 0.00 93 1014.9
20191016224204 6 198 0.0 3.2 0.00 0.13 0.00 93 1015.0
20191016223705 6 216 0.0 1.6 0.00 0.13 0.00 92 1015.0
20191016223210 6 216 0.0 1.6 0.00 0.13 0.00 92 1014.9
20191016222705 6 216 0.0 1.6 0.00 0.13 0.00 92 1015.0
20191016222205 6 216 0.0 1.6 0.00 0.13 0.00 92 1014.9
20191016221704 6 216 0.0 0.0 0.00 0.13 0.00 92 1015.0
20191016221204 6 216 0.0 0.0 0.00 0.13 0.00 92 1015.0
20191016220704 6 216 0.0 1.6 0.00 0.13 0.00 92 1015.1
20191016220208 6 216 0.0 1.6 0.00 0.13 0.13 91 1015.1
20191016215704 6 216 0.0 3.2 0.00 0.13 0.13 91 1015.1
20191016215208 6 216 0.0 4.8 0.00 0.13 0.13 90 1015.1
20191016214704 7 216 1.6 4.8 0.00 0.13 0.13 90 1015.2
20191016214205 7 216 1.6 4.8 0.00 0.13 0.13 90 1015.2
20191016213704 7 216 0.0 0.0 0.00 0.13 0.13 90 1015.2
20191016213208 7 216 0.0 1.6 0.00 0.13 0.13 90 1015.3
20191016212705 7 216 0.0 3.2 0.00 0.13 0.13 91 1015.3
20191016212209 7 216 1.6 3.2 0.00 0.13 0.13 91 1015.2
20191016211704 7 216 1.6 4.8 0.00 0.13 0.13 91 1015.3
20191016211208 7 216 0.0 4.8 0.00 0.13 0.13 91 1015.2
20191016210704 7 216 0.0 4.8 0.00 0.13 0.13 90 1015.2
20191016210205 7 139 0.0 1.6 0.00 0.13 0.13 90 1015.2
20191016205704 7 139 0.0 1.6 0.00 0.13 0.13 89 1015.3
20191016205205 7 139 0.0 1.6 0.00 0.13 0.13 89 1015.2
20191016204705 7 139 0.0 1.6 0.00 0.13 0.13 89 1015.2
20191016204208 7 139 0.0 1.6 0.00 0.13 0.13 88 1015.1
20191016203705 7 139 0.0 3.2 0.00 0.13 0.13 87 1015.1
20191016203205 8 139 0.0 3.2 0.00 0.13 0.13 86 1015.1
20191016202705 8 139 0.0 3.2 0.00 0.13 0.13 86 1014.8
20191016202205 8 139 0.0 3.2 0.00 0.13 0.13 86 1014.8
20191016201704 8 206 0.0 0.0 0.00 0.13 0.13 85 1014.9
20191016201204 8 206 0.0 1.6 0.00 0.13 0.13 84 1014.8
20191016200704 9 206 0.0 1.6 0.00 0.13 0.13 83 1014.8
20191016200205 9 206 0.0 3.2 0.00 0.13 0.13 83 1014.7
20191016195705 10 206 0.0 3.2 0.00 0.13 0.13 83 1014.8
20191016195205 10 206 0.0 12.9 0.00 0.13 0.13 82 1014.8
20191016194705 10 206 1.6 12.9 0.00 0.13 0.13 82 1014.8
20191016194205 10 173 3.2 12.9 0.00 0.13 0.13 82 1014.7
20191016193704 10 261 4.8 9.7 0.00 0.13 0.13 82 1014.7
20191016193205 10 249 4.8 9.7 0.00 0.13 0.13 83 1014.7
20191016192704 10 250 3.2 8.0 0.00 0.13 0.13 83 1014.8
20191016192205 10 248 3.2 8.0 0.00 0.13 0.13 82 1014.8
20191016191704 10 255 3.2 11.3 0.00 0.13 0.13 82 1014.8
20191016191206 10 239 4.8 11.3 0.00 0.13 0.13 82 1014.7
20191016190704 10 231 4.8 9.7 0.00 0.13 0.13 82 1014.7
20191016190205 10 206 4.8 9.7 0.00 0.13 0.13 82 1014.6
20191016185705 10 270 4.8 8.0 0.00 0.13 0.13 82 1014.7
20191016185205 10 276 4.8 12.9 0.00 0.13 0.13 82 1014.7
20191016184705 10 295 4.8 12.9 0.00 0.13 0.13 82 1014.7
20191016184204 10 257 4.8 9.7 0.00 0.13 0.13 82 1014.7
20191016183705 10 260 4.8 9.7 0.00 0.13 0.13 82 1014.6
20191016183205 10 267 4.8 9.7 0.00 0.13 0.13 83 1014.6
20191016182703 10 264 4.8 9.7 0.00 0.13 0.13 83 1014.5
20191016182205 10 245 4.8 8.0 0.00 0.13 0.13 84 1014.6
20191016181705 10 289 4.8 8.0 0.00 0.13 0.13 84 1014.5
20191016181205 10 260 3.2 8.0 0.00 0.13 0.13 84 1014.6
20191016180705 10 290 1.6 4.8 0.00 0.13 0.13 85 1014.6
20191016180205 10 325 0.0 3.2 0.00 0.13 0.13 84 1014.7
20191016175704 10 216 0.0 6.4 0.00 0.13 0.13 84 1014.7
20191016175205 10 216 1.6 8.0 0.00 0.13 0.13 83 1014.7
20191016174704 10 216 1.6 9.7 0.00 0.13 0.13 83 1014.5
20191016174205 10 216 3.2 9.7 0.00 0.13 0.13 83 1014.6
20191016173705 10 246 3.2 9.7 0.00 0.13 0.13 82 1014.6
20191016173205 10 228 4.8 9.7 0.00 0.13 0.13 82 1014.6
20191016172705 10 266 3.2 8.0 0.00 0.13 0.13 82 1014.5
20191016172205 10 216 1.6 6.4 0.00 0.13 0.13 82 1014.7
20191016171705 10 273 1.6 8.0 0.00 0.13 0.13 82 1014.6
20191016171205 10 206 1.6 11.3 0.00 0.13 0.13 82 1014.6
20191016170704 10 239 4.8 11.3 0.00 0.13 0.13 82 1014.5
20191016170205 10 206 3.2 11.3 0.00 0.13 0.13 82 1014.6
20191016165705 10 241 3.2 11.3 0.00 0.13 0.13 82 1014.5
20191016165205 10 201 3.2 8.0 0.00 0.13 0.13 82 1014.6
20191016164705 10 234 3.2 12.9 0.00 0.13 0.13 81 1014.5
20191016164205 10 230 4.8 12.9 0.00 0.13 0.13 81 1014.5
20191016163704 10 253 4.8 12.9 0.00 0.13 0.13 81 1014.5
20191016163205 11 206 4.8 12.9 0.00 0.13 0.13 81 1014.4
20191016162703 11 226 6.4 14.5 0.00 0.13 0.13 81 1014.4
20191016162205 11 273 6.4 14.5 0.00 0.13 0.13 81 1014.3
20191016161705 11 201 6.4 17.7 0.00 0.13 0.13 81 1014.3
20191016161208 11 216 6.4 19.3 0.00 0.13 0.13 81 1014.3
20191016160705 11 220 8.0 19.3 0.00 0.13 0.13 81 1014.3
20191016160205 11 216 8.0 17.7 0.00 0.13 0.13 81 1014.4
20191016155705 11 247 6.4 19.3 0.00 0.13 0.13 81 1014.5
20191016155205 11 216 8.0 19.3 0.00 0.13 0.13 80 1014.4
20191016154705 11 216 9.7 19.3 0.00 0.13 0.13 80 1014.3
20191016154205 11 216 8.0 16.1 0.00 0.13 0.13 79 1014.4
20191016153705 11 244 6.4 16.1 0.00 0.13 0.13 80 1014.4
20191016153208 11 206 6.4 16.1 0.00 0.13 0.13 80 1014.4
20191016152704 11 232 4.8 16.1 0.00 0.13 0.13 80 1014.4
20191016152205 11 230 4.8 16.1 0.00 0.13 0.13 80 1014.4
20191016151705 11 220 4.8 16.1 0.00 0.13 0.13 79 1014.5
20191016151205 11 227 6.4 14.5 0.00 0.13 0.13 79 1014.5
20191016150704 11 178 6.4 22.5 0.00 0.13 0.13 79 1014.5
20191016150205 11 242 8.0 22.5 0.00 0.13 0.13 79 1014.4
20191016145704 11 229 8.0 22.5 0.00 0.13 0.13 77 1014.5
20191016145205 12 216 9.7 20.9 0.00 0.13 0.13 75 1014.5
20191016144705 12 201 11.3 20.9 0.00 0.13 0.13 74 1014.4
20191016144205 12 216 8.0 17.7 0.00 0.13 0.13 73 1014.5
20191016143705 12 226 6.4 14.5 0.00 0.13 0.13 73 1014.5
20191016143205 12 180 6.4 17.7 0.00 0.13 0.13 73 1014.4
20191016142703 12 233 6.4 19.3 0.00 0.13 0.13 73 1014.3
20191016142204 12 206 8.0 19.3 0.00 0.13 0.13 73 1014.3
20191016141705 12 206 9.7 19.3 0.00 0.13 0.13 72 1014.4
20191016141205 12 253 8.0 16.1 0.00 0.13 0.13 73 1014.3
20191016140705 12 199 6.4 20.9 0.00 0.13 0.13 73 1014.3
20191016140205 12 220 8.0 24.1 0.00 0.13 0.13 72 1014.2
20191016135705 12 160 9.7 24.1 0.00 0.13 0.13 72 1014.2
20191016135205 12 234 11.3 25.7 0.00 0.13 0.13 72 1014.2
20191016134704 12 244 11.3 25.7 0.00 0.13 0.13 72 1014.2
20191016134205 12 230 11.3 25.7 0.00 0.13 0.13 72 1014.1
20191016133704 12 242 11.3 25.7 0.00 0.13 0.13 72 1014.0
20191016133205 12 199 11.3 22.5 0.00 0.13 0.13 72 1014.1
20191016132704 12 180 11.3 22.5 0.00 0.13 0.13 72 1014.1
20191016132205 12 245 11.3 22.5 0.00 0.13 0.13 72 1014.2
20191016131704 12 206 9.7 22.5 0.00 0.13 0.13 72 1014.1
20191016131204 12 211 8.0 22.5 0.00 0.13 0.13 73 1014.2
20191016130705 12 211 8.0 22.5 0.00 0.13 0.13 73 1014.2
20191016130205 12 220 9.7 25.7 0.00 0.13 0.13 72 1014.4
20191016125705 12 174 11.3 25.7 0.00 0.13 0.13 72 1014.3
20191016125205 12 206 12.9 27.4 0.00 0.13 0.13 71 1014.4
20191016124705 12 195 12.9 27.4 0.00 0.13 0.13 71 1014.3
20191016124205 12 239 12.9 27.4 0.00 0.13 0.13 70 1014.3